Home > Time Zones > World Clock > Weather > Norway > Oslo > Past weeks

Flag for Norway Weather past 2 weeks in Oslo, Norway

Now
53 °F

Passing clouds.


Feels Like: 53 °F
Forecast: 49 / 67 °F
Wind: No wind

Location: Oslo-Blindern

Current Time: Jul 31, 2015 at 11:46:22 PM

Latest Report: Jul 31, 2015 at 11:00 PM


Visibility: 47 mi

Pressure: 29.86 "Hg

Humidity: 86%

Dew point: 49 °F

Location of OsloLocation

Historic Weather in Oslo — Graph

°F

Oslo temperature yesterday

Maximum temperature yesterday: 71 °F (at 3:00 PM)
Minimum temperature yesterday: 52 °F (at 5:00 AM)
Average temperature yesterday: 62 °F

Past Weeks' High & Low Weather Summary

 TemperatureHumidityPressure
High74 °F (Jul 20, 2:00 PM)96% (Jul 18, 8:00 AM)30.07 "Hg (Jul 18, 8:00 AM)
Low47 °F (Jul 24, 5:00 AM)37% (Jul 23, 5:00 PM)29.35 "Hg (Jul 26, 1:00 PM)
Average59 °F71%29.63 "Hg
* Reported Jul 16 10:00 PM — Jul 31 10:00 PM, Oslo, Weather by CustomWeather, © 2015

Note: Actual official high and low records may vary slightly from our data, if they occured in-between our weather recording intervals... More about our weather records

Advertising

Oslo weather history for previous 24 hours

 ConditionsComfort  
Time TempWeatherWind HumidityBarometerVisibility
10:00 PM
Fri, Jul 31
56 °FCool.1 mph76%29.84 "HgN/A
9:00 PM59 °FRefreshingly cool.1 mph55%29.82 "HgN/A
8:00 PM63 °FPassing clouds.2 mph45%29.81 "Hg47 mi
7:00 PM65 °FMild.3 mph39%29.80 "HgN/A
6:00 PM65 °FMild.1 mph43%29.80 "HgN/A
5:00 PM66 °FPartly sunny.1 mph42%29.79 "Hg47 mi
4:00 PM67 °FMild.2 mph53%29.79 "HgN/A
3:00 PM64 °FMild.1 mph51%29.78 "HgN/A
2:00 PM64 °FPartly sunny.2 mph56%29.78 "Hg47 mi
1:00 PM62 °FMild.3 mph51%29.78 "HgN/A
12:00 PM58 °FCool.2 mph68%29.78 "HgN/A
11:00 AM56 °FOvercast.5 mph68%29.78 "Hg47 mi
10:00 AM52 °FCool.5 mph84%29.78 "HgN/A
9:00 AM56 °FCool.6 mph67%29.74 "HgN/A
8:00 AM56 °FOvercast.7 mph71%29.72 "Hg47 mi
7:00 AM55 °FCool.8 mph73%29.70 "HgN/A
6:00 AM55 °FCool.7 mph75%29.68 "HgN/A
5:00 AM56 °FSprinkles. Overcast.6 mph77%29.66 "Hg43 mi
4:00 AM57 °FCool.5 mph74%29.65 "HgN/A
3:00 AM58 °FCool.5 mph79%29.63 "HgN/A
2:00 AM59 °FOvercast.2 mph80%29.61 "Hg47 mi
1:00 AM58 °FCool.2 mph89%29.60 "HgN/A
12:00 AM59 °FCool.2 mph85%29.59 "HgN/A
Weather by CustomWeather, © 2015

See weather overviewHow to use our weather pages